Find Starlink 37831

NORAD ID: 69489 Int'l Des: 2026-131 Owner: SPXS Country: US Constellation: starlink operational
LEOCIRCULARRETROGRADE

現在のビュー

3D地球を読み込み中...

About Starlink 37831

Starlink 37831 (NORAD 69489) is a starlink constellation satellite (v2 mini) launched Jun 11, 2026 by SPXS of US. It operates in LEO, CIRCULAR, RETROGRADE orbit with a mass of 575.00 kg.

次回通過

Passes for default location (London). Set your location on the main map for personalized predictions.

高度履歴

Loading altitude history...

軌道要素

1 69489U 26131M 26209.16668980 -.00043996 00000-0 -13670-2 0 9994
2 69489 97.2842 230.8167 0000952 58.8504 228.0059 15.33476758 6004
Epoch: Jul 28, 2026 • Age: 17 hours

現在のステータス

高度 472.1 km
遠地点 / 近地点 N/A
速度 7.63 km/s
衛星直下点 -16.41°S, 35°W
打ち上げ日 Jun 11, 2026
運用期間 0.1 years
タイプ internet

技術仕様

分類 Payload
質量 575.00 kg
乾燥質量 530.00 kg
総質量 575.00 kg
長さ 0.30 m
直径 4.10 m
スパン 29.00 m
形状 Box + pan
製造者 SPXS
バスタイプ Starlink V2MO
フェーズステータス In Orbit
所有者/国 SPXS/US

Most Searched